STARLINK-5676, 55464

Orbit data source: Space-Track

STARLINK-5676, 55464 is a payload satellite owned by SpaceX/Seattle (US) in LEO that was launched on Thu, 02 Feb 2023 UTC via an FALCON 9 launch vehicle from the Air Force Eastern Test Range (AFETR). Payload-class satellites include a variety of spacecraft equipped with specific instruments for various scientific and technological missions. These include communications satellites like Starlink; space stations such as the ISS; scientific satellites like the Hubble; Earth observation satellites from companies like Planet Labs, Umbra, and HawkEye 360; GPS; miniature CubeSats for education and research; and military/defense satellites.

Loading next visibility...
Identifier
55464, 2023-015R
Orbit
LEO
Country
Flag of USUS
Related business
Manufacturer
SpaceX/Seattle
Mission
Operational Commercial Communications
Bus & Motor
STARLINK, Unknown motor
Mass
305 kg wet, ~290 kg dry
Launch date (UTC)
2023-02-02 (3 years ago)
Launch vehicle
FALCON 9
Launch site
Air Force Eastern Test Range (AFETR)
Object type
Payload
Rocket body
Debris
Shape & HBR
Box + 1 Pan, 10.1 m
Radar Cross Section
13.562 m², Large (>1 m²)

Expand to show TLE details & history
Last TLE update: 13 hours ago

TLE from 13 hours ago
0 STARLINK-5676
1 55464U 23015R   26132.58060336  .00000330  00000-0  21522-4 0  9992
2 55464  43.0023 327.8700 0001277 267.7968  92.2737 15.27576393180497
Epoch: 2026-05-12T13:56Z
TLE epoch observation values (Epoch: 2026-05-12T13:56:04.130Z)
Latitude
-0.00004°
Longitude
-111.50019°
Altitude
482.87 km
Speed
7.626 km/s
True Right ascension
21h 51m 28s
True Declination
0° 00' 00"
Sunlit
Object was in daylight at epoch
Visualization orbit readout
Latitude
Unknown
Longitude
Unknown
Altitude
Unknown
Speed
Unknown
Apparent Right ascension
Unknown
Apparent Declination
Unknown
Sunlit
N/A
Visualization observer readout
Local Sidereal Time
11:17:02
Azimuth
Unknown
Elevation
Unknown
Doppler factor
Unknown
Orbital elements
Apogee altitude
485.881 km
Perigee altitude
484.128 km
Semi-major axis
6,863.142 km
Eccentricity
0.00013
Inclination
43.0023°
RAAN
327.87°
Arg. of periapsis
267.7968°
True anomaly
92.28832°
Mean anomaly
92.2737°
Eccentric anomaly
92.28101°
Mean motion
3.81732 °/min
Orbital period
94.31 mins
BSTAR
0.000021522
Loading maneuver chart data...
Computing Atmospheric mass density...
Loading historical data...
Loading historical data...
Loading historical data...
Loading historical data...
Loading historical data...
Loading historical data...
Loading historical data...

Documentation

Showing up to 5 results
|